Find Starlink 31438

NORAD ID: 59234 Int'l Des: 2024-049 Owner: SPXS Country: US Constellation: starlink operational
LEOCIRCULAR

实时位置

正在加载3D地球...

关于 Starlink 31438

正在加载描述...

即将过境

Passes for default location (London). Set your location on the main map for personalized predictions.

高度历史

Loading altitude history...

两行轨道根数

1 59234U 24049D 26133.03204955 -.00000256 00000-0 22421-6 0 9996
2 59234 43.0023 129.1603 0001087 274.8439 85.2288 15.27574811122360
Epoch: May 13, 2026 • Age: 8 hours

当前状态

高度 485.4 km
速度 7.62 km/s
星下点 -14.00°S, 112.91°E
发射日期 Mar 16, 2024
运行时间 2.1 years
类型 internet

技术详情

分类 Payload
质量 730.00 kg
干质量 700.00 kg
总质量 730.00 kg
长度 0.30 m
直径 4.10 m
跨度 29.00 m
形状 Box + pan
制造商 SPXS
平台类型 Starlink V2M
阶段状态 In Orbit
所有者/国家 SPXS/US

Most Searched